| time (UTC) | temp F | wind direction | speed MPH | gust MPH | rain 1hr in | rain 24hr in | rain mn in | humidity % | barometer mb |
| 20260506224130 | 86 | 106 | 4.0 | 6.0 | 0.00 | 0.00 | 0.00 | 56 | 1016.6 |
| 20260506223626 | 86 | 73 | 2.0 | 3.0 | 0.00 | 0.00 | 0.00 | 56 | 1016.5 |
| 20260506223122 | 86 | 145 | 5.0 | 7.0 | 0.00 | 0.00 | 0.00 | 55 | 1016.5 |
| 20260506222620 | 87 | 69 | 5.0 | 6.0 | 0.00 | 0.00 | 0.00 | 55 | 1016.6 |
| 20260506222116 | 87 | 83 | 5.0 | 8.0 | 0.00 | 0.00 | 0.00 | 53 | 1016.5 |
| 20260506221614 | 88 | 187 | 4.0 | 8.0 | 0.00 | 0.00 | 0.00 | 51 | 1016.5 |
| 20260506221112 | 88 | 169 | 3.0 | 6.0 | 0.00 | 0.00 | 0.00 | 51 | 1016.7 |
| 20260506220608 | 88 | 163 | 3.0 | 5.0 | 0.00 | 0.00 | 0.00 | 52 | 1016.3 |
| 20260506215600 | 88 | 100 | 5.0 | 7.0 | 0.00 | 0.00 | 0.00 | 52 | 1016.6 |
| 20260506215055 | 88 | 161 | 5.0 | 7.0 | 0.00 | 0.00 | 0.00 | 49 | 1016.7 |
| 20260506214553 | 88 | 151 | 4.0 | 5.0 | 0.00 | 0.00 | 0.00 | 48 | 1016.5 |
| 20260506214050 | 89 | 93 | 6.0 | 8.0 | 0.00 | 0.00 | 0.00 | 49 | 1016.5 |
| 20260506213548 | 90 | 84 | 6.0 | 7.0 | 0.00 | 0.00 | 0.00 | 46 | 1016.5 |
| 20260506213045 | 89 | 137 | 6.0 | 8.0 | 0.00 | 0.00 | 0.00 | 48 | 1016.6 |
| 20260506212542 | 90 | 107 | 2.0 | 3.0 | 0.00 | 0.00 | 0.00 | 47 | 1016.5 |
| 20260506212036 | 89 | 163 | 5.0 | 8.0 | 0.00 | 0.00 | 0.00 | 47 | 1016.6 |
| 20260506211533 | 90 | 188 | 5.0 | 8.0 | 0.00 | 0.00 | 0.00 | 48 | 1016.5 |
| 20260506211030 | 91 | 112 | 3.0 | 6.0 | 0.00 | 0.00 | 0.00 | 45 | 1016.5 |
| 20260506210526 | 90 | 77 | 1.0 | 2.0 | 0.00 | 0.00 | 0.00 | 47 | 1016.6 |
| 20260506210023 | 91 | 112 | 4.0 | 7.0 | 0.00 | 0.00 | 0.00 | 46 | 1016.4 |
| 20260506205520 | 90 | 145 | 2.0 | 3.0 | 0.00 | 0.00 | 0.00 | 45 | 1016.6 |
| 20260506205015 | 90 | 125 | 2.0 | 2.0 | 0.00 | 0.00 | 0.00 | 45 | 1016.5 |
| 20260506204514 | 90 | 99 | 5.0 | 7.0 | 0.00 | 0.00 | 0.00 | 45 | 1016.6 |
| 20260506204010 | 91 | 80 | 6.0 | 9.0 | 0.00 | 0.00 | 0.00 | 45 | 1016.3 |
| 20260506203508 | 91 | 8 | 4.0 | 6.0 | 0.00 | 0.00 | 0.00 | 46 | 1016.6 |
| 20260506203004 | 92 | 82 | 6.0 | 7.0 | 0.00 | 0.00 | 0.00 | 44 | 1016.4 |
| 20260506202502 | 91 | 110 | 7.0 | 10.0 | 0.00 | 0.00 | 0.00 | 44 | 1016.5 |
| 20260506201958 | 91 | 82 | 6.0 | 7.0 | 0.00 | 0.00 | 0.00 | 43 | 1016.4 |
| 20260506201455 | 92 | 82 | 5.0 | 8.0 | 0.00 | 0.00 | 0.00 | 45 | 1016.5 |
| 20260506200946 | 91 | 103 | 7.0 | 9.0 | 0.00 | 0.00 | 0.00 | 44 | 1016.6 |
| 20260506200442 | 92 | 156 | 5.0 | 8.0 | 0.00 | 0.00 | 0.00 | 43 | 1016.4 |
| 20260506195939 | 91 | 6 | 3.0 | 5.0 | 0.00 | 0.00 | 0.00 | 44 | 1016.5 |
| 20260506195436 | 91 | 109 | 8.0 | 11.0 | 0.00 | 0.00 | 0.00 | 43 | 1016.7 |
| 20260506194933 | 92 | 123 | 9.0 | 13.0 | 0.00 | 0.00 | 0.00 | 42 | 1016.7 |
| 20260506194430 | 92 | 110 | 7.0 | 7.0 | 0.00 | 0.00 | 0.00 | 43 | 1016.7 |
| 20260506193927 | 92 | 146 | 3.0 | 6.0 | 0.00 | 0.00 | 0.00 | 43 | 1016.7 |
| 20260506193424 | 92 | 105 | 8.0 | 10.0 | 0.00 | 0.00 | 0.00 | 43 | 1016.7 |
| 20260506192920 | 93 | 218 | 7.0 | 8.0 | 0.00 | 0.00 | 0.00 | 43 | 1016.6 |
| 20260506192417 | 93 | 99 | 5.0 | 7.0 | 0.00 | 0.00 | 0.00 | 44 | 1016.6 |
| 20260506191914 | 93 | 133 | 4.0 | 6.0 | 0.00 | 0.00 | 0.00 | 45 | 1016.7 |
| 20260506191410 | 93 | 159 | 1.0 | 2.0 | 0.00 | 0.00 | 0.00 | 42 | 1016.8 |
| 20260506190908 | 94 | 206 | 5.0 | 7.0 | 0.00 | 0.00 | 0.00 | 43 | 1017.0 |
| 20260506190404 | 95 | 132 | 7.0 | 8.0 | 0.00 | 0.00 | 0.00 | 42 | 1016.8 |
| 20260506185901 | 94 | 150 | 2.0 | 3.0 | 0.00 | 0.00 | 0.00 | 42 | 1016.9 |
| 20260506185358 | 94 | 65 | 1.0 | 1.0 | 0.00 | 0.00 | 0.00 | 42 | 1017.2 |
| 20260506184855 | 93 | 66 | 3.0 | 3.0 | 0.00 | 0.00 | 0.00 | 44 | 1017.2 |
| 20260506184352 | 92 | 135 | 6.0 | 11.0 | 0.00 | 0.00 | 0.00 | 46 | 1017.1 |
| 20260506183849 | 93 | 82 | 5.0 | 7.0 | 0.00 | 0.00 | 0.00 | 43 | 1017.3 |
| 20260506183344 | 95 | 184 | 3.0 | 3.0 | 0.00 | 0.00 | 0.00 | 42 | 1017.4 |
| 20260506182842 | 93 | 152 | 2.0 | 5.0 | 0.00 | 0.00 | 0.00 | 43 | 1017.3 |
| 20260506182339 | 93 | 135 | 5.0 | 7.0 | 0.00 | 0.00 | 0.00 | 43 | 1017.3 |
| 20260506181836 | 95 | 192 | 7.0 | 8.0 | 0.00 | 0.00 | 0.00 | 43 | 1017.6 |
| 20260506181335 | 94 | 249 | 1.0 | 1.0 | 0.00 | 0.00 | 0.00 | 44 | 1017.4 |
| 20260506180831 | 93 | 125 | 3.0 | 5.0 | 0.00 | 0.00 | 0.00 | 45 | 1017.4 |
| 20260506180327 | 94 | 173 | 5.0 | 6.0 | 0.00 | 0.00 | 0.00 | 43 | 1017.6 |
| 20260506175823 | 94 | 41 | 0.0 | 0.0 | 0.00 | 0.00 | 0.00 | 44 | 1017.5 |
| 20260506175321 | 93 | 123 | 4.0 | 5.0 | 0.00 | 0.00 | 0.00 | 43 | 1017.6 |
| 20260506174818 | 93 | 330 | 1.0 | 1.0 | 0.00 | 0.00 | 0.00 | 44 | 1017.6 |
| 20260506174315 | 93 | 219 | 4.0 | 6.0 | 0.00 | 0.00 | 0.00 | 45 | 1017.6 |
| 20260506173812 | 93 | 194 | 3.0 | 5.0 | 0.00 | 0.00 | 0.00 | 45 | 1017.8 |
| 20260506173309 | 92 | 210 | 1.0 | 2.0 | 0.00 | 0.00 | 0.00 | 45 | 1017.7 |
| 20260506172806 | 93 | 210 | 5.0 | 7.0 | 0.00 | 0.00 | 0.00 | 46 | 1017.8 |
| 20260506172306 | 93 | 299 | 0.0 | 0.0 | 0.00 | 0.00 | 0.00 | 43 | 1017.7 |
| 20260506171800 | 91 | 75 | 1.0 | 1.0 | 0.00 | 0.00 | 0.00 | 47 | 1018.1 |
| 20260506171257 | 92 | 95 | 5.0 | 8.0 | 0.00 | 0.00 | 0.00 | 46 | 1017.9 |
| 20260506170755 | 92 | 129 | 4.0 | 6.0 | 0.00 | 0.00 | 0.00 | 45 | 1017.7 |
| 20260506170251 | 91 | 112 | 1.0 | 2.0 | 0.00 | 0.00 | 0.00 | 47 | 1018.0 |
| 20260506165750 | 91 | 196 | 3.0 | 3.0 | 0.00 | 0.00 | 0.00 | 48 | 1018.1 |
| 20260506165247 | 92 | 102 | 6.0 | 8.0 | 0.00 | 0.00 | 0.00 | 48 | 1018.1 |
| 20260506164744 | 91 | 166 | 2.0 | 2.0 | 0.00 | 0.00 | 0.00 | 47 | 1018.0 |
| 20260506164240 | 92 | 221 | 4.0 | 6.0 | 0.00 | 0.00 | 0.00 | 48 | 1018.1 |
| 20260506163737 | 91 | 153 | 3.0 | 5.0 | 0.00 | 0.00 | 0.00 | 47 | 1018.1 |
| 20260506163232 | 92 | 93 | 6.0 | 7.0 | 0.00 | 0.00 | 0.00 | 48 | 1018.1 |
| 20260506162728 | 91 | 195 | 5.0 | 6.0 | 0.00 | 0.00 | 0.00 | 51 | 1018.0 |
| 20260506162226 | 91 | 203 | 2.0 | 2.0 | 0.00 | 0.00 | 0.00 | 48 | 1018.1 |
| 20260506161723 | 91 | 127 | 2.0 | 3.0 | 0.00 | 0.00 | 0.00 | 48 | 1018.1 |
| 20260506161220 | 93 | 190 | 3.0 | 5.0 | 0.00 | 0.00 | 0.00 | 48 | 1018.1 |
| 20260506160718 | 92 | 32 | 2.0 | 2.0 | 0.00 | 0.00 | 0.00 | 49 | 1018.3 |
| 20260506160214 | 91 | 108 | 4.0 | 5.0 | 0.00 | 0.00 | 0.00 | 43 | 1018.2 |
| 20260506155713 | 90 | 122 | 5.0 | 6.0 | 0.00 | 0.00 | 0.00 | 47 | 1018.5 |
| 20260506155210 | 90 | 131 | 3.0 | 5.0 | 0.00 | 0.00 | 0.00 | 53 | 1018.3 |
| 20260506153317 | 91 | 171 | 3.0 | 6.0 | 0.00 | 0.00 | 0.00 | 56 | 1018.4 |
| 20260506152814 | 89 | 93 | 4.0 | 6.0 | 0.00 | 0.00 | 0.00 | 55 | 1018.4 |
| 20260506152311 | 90 | 153 | 1.0 | 2.0 | 0.00 | 0.00 | 0.00 | 53 | 1018.5 |
| 20260506151810 | 89 | 232 | 4.0 | 5.0 | 0.00 | 0.00 | 0.00 | 53 | 1018.3 |
| 20260506151307 | 88 | 115 | 2.0 | 3.0 | 0.00 | 0.00 | 0.00 | 54 | 1018.2 |
| 20260506150803 | 88 | 121 | 6.0 | 7.0 | 0.00 | 0.00 | 0.00 | 57 | 1018.2 |
| 20260506150304 | 88 | 250 | 1.0 | 1.0 | 0.00 | 0.00 | 0.00 | 60 | 1018.1 |
| 20260506145757 | 88 | 84 | 1.0 | 1.0 | 0.00 | 0.00 | 0.00 | 61 | 1018.2 |
| 20260506145254 | 89 | 136 | 3.0 | 3.0 | 0.00 | 0.00 | 0.00 | 61 | 1018.2 |
| 20260506144751 | 88 | 214 | 1.0 | 2.0 | 0.00 | 0.00 | 0.00 | 59 | 1018.4 |
| 20260506144248 | 88 | 214 | 5.0 | 7.0 | 0.00 | 0.00 | 0.00 | 58 | 1018.2 |
| 20260506143746 | 88 | 222 | 3.0 | 5.0 | 0.00 | 0.00 | 0.00 | 66 | 1018.1 |
| 20260506143243 | 87 | 180 | 2.0 | 2.0 | 0.00 | 0.00 | 0.00 | 65 | 1018.3 |
| 20260506142741 | 87 | 163 | 5.0 | 6.0 | 0.00 | 0.00 | 0.00 | 70 | 1018.3 |
| 20260506142239 | 86 | 58 | 1.0 | 1.0 | 0.00 | 0.00 | 0.00 | 71 | 1018.3 |
| 20260506141738 | 86 | 166 | 2.0 | 3.0 | 0.00 | 0.00 | 0.00 | 72 | 1018.3 |
| 20260506141235 | 86 | 147 | 4.0 | 7.0 | 0.00 | 0.00 | 0.00 | 73 | 1018.4 |
| 20260506140732 | 85 | 133 | 3.0 | 3.0 | 0.00 | 0.00 | 0.00 | 74 | 1018.3 |
| 20260506140229 | 84 | 103 | 4.0 | 5.0 | 0.00 | 0.00 | 0.00 | 78 | 1018.2 |
| 20260506135726 | 85 | 349 | 0.0 | 0.0 | 0.00 | 0.00 | 0.00 | 75 | 1018.1 |
| 20260506135222 | 84 | 91 | 4.0 | 6.0 | 0.00 | 0.00 | 0.00 | 76 | 1018.3 |
| 20260506134719 | 83 | 159 | 3.0 | 3.0 | 0.00 | 0.00 | 0.00 | 80 | 1017.9 |
| 20260506134215 | 84 | 68 | 2.0 | 2.0 | 0.00 | 0.00 | 0.00 | 80 | 1018.2 |
| 20260506133713 | 83 | 95 | 2.0 | 2.0 | 0.00 | 0.00 | 0.00 | 81 | 1017.9 |
| 20260506133209 | 82 | 135 | 3.0 | 3.0 | 0.00 | 0.00 | 0.00 | 84 | 1018.1 |
| 20260506132706 | 82 | 171 | 3.0 | 5.0 | 0.00 | 0.00 | 0.00 | 84 | 1017.7 |
| 20260506132203 | 82 | 119 | 3.0 | 3.0 | 0.00 | 0.00 | 0.00 | 85 | 1018.0 |
| 20260506131701 | 81 | 205 | 2.0 | 3.0 | 0.00 | 0.00 | 0.00 | 86 | 1017.7 |
| 20260506131156 | 81 | 130 | 3.0 | 5.0 | 0.00 | 0.00 | 0.00 | 86 | 1017.8 |
| 20260506130654 | 81 | 97 | 3.0 | 5.0 | 0.00 | 0.00 | 0.00 | 86 | 1017.8 |
| 20260506130151 | 81 | 120 | 3.0 | 3.0 | 0.00 | 0.00 | 0.00 | 87 | 1017.8 |
| 20260506125649 | 81 | 230 | 2.0 | 3.0 | 0.00 | 0.00 | 0.00 | 87 | 1017.9 |
| 20260506125147 | 80 | 261 | 1.0 | 1.0 | 0.00 | 0.00 | 0.00 | 89 | 1017.8 |
| 20260506124645 | 79 | 169 | 3.0 | 3.0 | 0.00 | 0.00 | 0.00 | 90 | 1017.9 |
| 20260506124142 | 77 | 84 | 0.0 | 0.0 | 0.00 | 0.00 | 0.00 | 94 | 1017.7 |
| 20260506123639 | 76 | 98 | 2.0 | 2.0 | 0.00 | 0.00 | 0.00 | 98 | 1017.7 |
| 20260506123138 | 75 | 339 | 0.0 | 0.0 | 0.00 | 0.00 | 0.00 | 99 | 1017.7 |
| 20260506122634 | 75 | 149 | 0.0 | 1.0 | 0.00 | 0.00 | 0.00 | 99 | 1017.5 |
| 20260506122132 | 74 | 9 | 0.0 | 0.0 | 0.00 | 0.00 | 0.00 | 99 | 1017.7 |
| 20260506121629 | 74 | 314 | 0.0 | 0.0 | 0.00 | 0.00 | 0.00 | 99 | 1017.6 |
| 20260506121126 | 72 | 314 | 0.0 | 0.0 | 0.00 | 0.00 | 0.00 | 99 | 1017.5 |
| 20260506120624 | 71 | 314 | 0.0 | 0.0 | 0.00 | 0.00 | 0.00 | 99 | 1017.6 |
| 20260506120121 | 71 | 314 | 0.0 | 0.0 | 0.00 | 0.00 | 0.00 | 99 | 1017.6 |
| 20260506115619 | 71 | 314 | 0.0 | 0.0 | 0.00 | 0.00 | 0.00 | 99 | 1017.8 |
| 20260506115117 | 70 | 314 | 0.0 | 0.0 | 0.00 | 0.00 | 0.00 | 99 | 1017.3 |
| 20260506114614 | 69 | 314 | 0.0 | 0.0 | 0.00 | 0.00 | 0.00 | 99 | 1017.5 |
| 20260506114112 | 69 | 314 | 0.0 | 0.0 | 0.00 | 0.00 | 0.00 | 99 | 1017.4 |
| 20260506113610 | 68 | 314 | 0.0 | 0.0 | 0.00 | 0.00 | 0.00 | 99 | 1017.3 |
| 20260506113107 | 68 | 314 | 0.0 | 0.0 | 0.00 | 0.00 | 0.00 | 99 | 1017.4 |
| 20260506112603 | 67 | 314 | 0.0 | 0.0 | 0.00 | 0.00 | 0.00 | 99 | 1017.5 |
| 20260506112101 | 67 | 314 | 0.0 | 0.0 | 0.00 | 0.00 | 0.00 | 99 | 1017.4 |
| 20260506111559 | 67 | 314 | 0.0 | 0.0 | 0.00 | 0.00 | 0.00 | 99 | 1017.3 |
| 20260506111056 | 67 | 314 | 0.0 | 0.0 | 0.00 | 0.00 | 0.00 | 99 | 1017.5 |
| 20260506110553 | 67 | 314 | 0.0 | 0.0 | 0.00 | 0.00 | 0.00 | 99 | 1017.6 |
| 20260506110050 | 67 | 314 | 0.0 | 0.0 | 0.00 | 0.00 | 0.00 | 99 | 1017.1 |
| 20260506105546 | 67 | 314 | 0.0 | 0.0 | 0.00 | 0.00 | 0.00 | 99 | 1017.1 |
| 20260506105044 | 66 | 314 | 0.0 | 0.0 | 0.00 | 0.00 | 0.00 | 99 | 1017.1 |
| 20260506104542 | 66 | 314 | 0.0 | 0.0 | 0.00 | 0.00 | 0.00 | 99 | 1016.8 |
| 20260506104039 | 66 | 314 | 0.0 | 0.0 | 0.00 | 0.00 | 0.00 | 99 | 1016.9 |
| 20260506103536 | 66 | 314 | 0.0 | 0.0 | 0.00 | 0.00 | 0.00 | 99 | 1016.9 |
| 20260506103033 | 66 | 314 | 0.0 | 0.0 | 0.00 | 0.00 | 0.00 | 99 | 1016.7 |
| 20260506102532 | 66 | 314 | 0.0 | 0.0 | 0.00 | 0.00 | 0.00 | 99 | 1016.5 |
| 20260506102029 | 66 | 314 | 0.0 | 0.0 | 0.00 | 0.00 | 0.00 | 99 | 1016.7 |
| 20260506101525 | 66 | 314 | 0.0 | 0.0 | 0.00 | 0.00 | 0.00 | 99 | 1016.7 |
| 20260506101022 | 66 | 314 | 0.0 | 0.0 | 0.00 | 0.00 | 0.00 | 99 | 1016.7 |
| 20260506100520 | 66 | 314 | 0.0 | 0.0 | 0.00 | 0.00 | 0.00 | 99 | 1016.6 |
| 20260506100018 | 66 | 314 | 0.0 | 0.0 | 0.00 | 0.00 | 0.00 | 99 | 1016.8 |
| 20260506095517 | 66 | 314 | 0.0 | 0.0 | 0.00 | 0.00 | 0.00 | 99 | 1016.8 |
| 20260506095012 | 66 | 314 | 0.0 | 0.0 | 0.00 | 0.00 | 0.00 | 99 | 1016.5 |
| 20260506094511 | 66 | 314 | 0.0 | 0.0 | 0.00 | 0.00 | 0.00 | 99 | 1016.6 |
| 20260506094008 | 66 | 314 | 0.0 | 0.0 | 0.00 | 0.00 | 0.00 | 99 | 1016.5 |
| 20260506093507 | 66 | 314 | 0.0 | 0.0 | 0.00 | 0.00 | 0.00 | 99 | 1016.5 |
| 20260506093004 | 66 | 314 | 0.0 | 0.0 | 0.00 | 0.00 | 0.00 | 99 | 1016.5 |
| 20260506092502 | 66 | 314 | 0.0 | 0.0 | 0.00 | 0.00 | 0.00 | 99 | 1016.5 |
| 20260506091957 | 67 | 314 | 0.0 | 0.0 | 0.00 | 0.00 | 0.00 | 99 | 1016.6 |
| 20260506091456 | 66 | 314 | 0.0 | 0.0 | 0.00 | 0.00 | 0.00 | 99 | 1016.4 |
| 20260506090953 | 67 | 314 | 0.0 | 0.0 | 0.00 | 0.00 | 0.00 | 99 | 1016.5 |
| 20260506090451 | 66 | 314 | 0.0 | 0.0 | 0.00 | 0.00 | 0.00 | 99 | 1016.5 |
| 20260506085947 | 66 | 314 | 0.0 | 0.0 | 0.00 | 0.00 | 0.00 | 99 | 1016.2 |
| 20260506085444 | 67 | 314 | 0.0 | 0.0 | 0.00 | 0.00 | 0.00 | 99 | 1016.3 |
| 20260506084940 | 67 | 314 | 0.0 | 0.0 | 0.00 | 0.00 | 0.00 | 99 | 1016.2 |
| 20260506084437 | 67 | 314 | 0.0 | 0.0 | 0.00 | 0.00 | 0.00 | 99 | 1016.3 |
| 20260506083933 | 67 | 314 | 0.0 | 0.0 | 0.00 | 0.00 | 0.00 | 99 | 1016.4 |
| 20260506083431 | 66 | 314 | 0.0 | 0.0 | 0.00 | 0.00 | 0.00 | 99 | 1016.3 |
| 20260506082928 | 66 | 314 | 0.0 | 0.0 | 0.00 | 0.00 | 0.00 | 99 | 1016.2 |
| 20260506082425 | 67 | 314 | 0.0 | 0.0 | 0.00 | 0.00 | 0.00 | 99 | 1016.3 |
| 20260506081920 | 66 | 314 | 0.0 | 0.0 | 0.00 | 0.00 | 0.00 | 99 | 1016.5 |
| 20260506081419 | 67 | 314 | 0.0 | 0.0 | 0.00 | 0.00 | 0.00 | 99 | 1016.3 |
| 20260506080916 | 67 | 314 | 0.0 | 0.0 | 0.00 | 0.00 | 0.00 | 99 | 1016.6 |
| 20260506080412 | 66 | 314 | 0.0 | 0.0 | 0.00 | 0.00 | 0.00 | 99 | 1016.5 |
| 20260506073357 | 67 | 314 | 0.0 | 0.0 | 0.00 | 0.00 | 0.00 | 99 | 1016.6 |
| 20260506072853 | 67 | 314 | 0.0 | 0.0 | 0.00 | 0.00 | 0.00 | 99 | 1016.7 |
| 20260506072351 | 67 | 314 | 0.0 | 0.0 | 0.00 | 0.00 | 0.00 | 99 | 1016.4 |
| 20260506071848 | 67 | 314 | 0.0 | 0.0 | 0.00 | 0.00 | 0.00 | 99 | 1016.7 |
| 20260506071347 | 67 | 314 | 0.0 | 0.0 | 0.00 | 0.00 | 0.00 | 99 | 1016.7 |
| 20260506070843 | 67 | 314 | 0.0 | 0.0 | 0.00 | 0.00 | 0.00 | 99 | 1016.9 |
| 20260506070340 | 68 | 314 | 0.0 | 0.0 | 0.00 | 0.00 | 0.00 | 99 | 1016.7 |
| 20260506062317 | 68 | 314 | 0.0 | 0.0 | 0.00 | 0.00 | 0.00 | 99 | 1016.8 |
| 20260506061813 | 68 | 314 | 0.0 | 0.0 | 0.00 | 0.00 | 0.00 | 99 | 1016.9 |
| 20260506061310 | 67 | 314 | 0.0 | 0.0 | 0.00 | 0.00 | 0.00 | 99 | 1017.0 |
| 20260506060809 | 67 | 314 | 0.0 | 0.0 | 0.00 | 0.00 | 0.00 | 99 | 1016.8 |
| 20260506060306 | 67 | 314 | 0.0 | 0.0 | 0.00 | 0.00 | 0.00 | 99 | 1017.0 |
| 20260506051238 | 68 | 314 | 0.0 | 0.0 | 0.00 | 0.00 | 0.00 | 98 | 1017.3 |
| 20260506050736 | 68 | 314 | 0.0 | 0.0 | 0.00 | 0.00 | 0.00 | 98 | 1017.4 |
| 20260506050233 | 68 | 314 | 0.0 | 0.0 | 0.00 | 0.00 | 0.00 | 98 | 1017.1 |
| 20260506044724 | 68 | 314 | 0.0 | 0.0 | 0.00 | 0.00 | 0.00 | 98 | 1017.0 |
| 20260506044221 | 68 | 314 | 0.0 | 0.0 | 0.00 | 0.00 | 0.00 | 98 | 1017.3 |
| 20260506043718 | 68 | 314 | 0.0 | 0.0 | 0.00 | 0.00 | 0.00 | 97 | 1017.1 |
| 20260506043216 | 68 | 314 | 0.0 | 0.0 | 0.00 | 0.00 | 0.00 | 97 | 1017.1 |
| 20260506042714 | 68 | 314 | 0.0 | 0.0 | 0.00 | 0.00 | 0.00 | 97 | 1017.0 |
| 20260506042212 | 68 | 314 | 0.0 | 0.0 | 0.00 | 0.00 | 0.00 | 97 | 1017.2 |
| 20260506041710 | 68 | 314 | 0.0 | 0.0 | 0.00 | 0.00 | 0.00 | 97 | 1017.3 |
| 20260506041207 | 68 | 314 | 0.0 | 0.0 | 0.00 | 0.00 | 0.00 | 97 | 1017.4 |
| 20260506040705 | 68 | 314 | 0.0 | 0.0 | 0.00 | 0.00 | 0.00 | 96 | 1017.4 |
| 20260506040201 | 69 | 314 | 0.0 | 0.0 | 0.00 | 0.00 | 0.00 | 96 | 1017.4 |
| 20260506035658 | 69 | 314 | 0.0 | 0.0 | 0.00 | 0.00 | 0.00 | 97 | 1017.4 |
| 20260506035155 | 69 | 315 | 0.0 | 0.0 | 0.00 | 0.00 | 0.00 | 96 | 1017.6 |
| 20260506034652 | 68 | 315 | 0.0 | 0.0 | 0.00 | 0.00 | 0.00 | 96 | 1017.6 |
| 20260506034149 | 68 | 315 | 0.0 | 0.0 | 0.00 | 0.00 | 0.00 | 96 | 1017.6 |
| 20260506033646 | 69 | 315 | 0.0 | 0.0 | 0.00 | 0.00 | 0.00 | 95 | 1017.7 |
| 20260506033143 | 69 | 315 | 0.0 | 0.0 | 0.00 | 0.00 | 0.00 | 95 | 1017.6 |
| 20260506032640 | 69 | 315 | 0.0 | 0.0 | 0.00 | 0.00 | 0.00 | 95 | 1017.8 |
| 20260506032137 | 69 | 314 | 0.0 | 0.0 | 0.00 | 0.00 | 0.00 | 95 | 1017.6 |
| 20260506031634 | 69 | 352 | 0.0 | 0.0 | 0.00 | 0.00 | 0.00 | 95 | 1017.7 |
| 20260506031131 | 69 | 355 | 0.0 | 0.0 | 0.00 | 0.00 | 0.00 | 95 | 1017.5 |
| 20260506030630 | 69 | 355 | 0.0 | 0.0 | 0.00 | 0.00 | 0.00 | 94 | 1017.4 |
| 20260506030126 | 69 | 355 | 0.0 | 0.0 | 0.00 | 0.00 | 0.00 | 94 | 1017.6 |
| 20260506025623 | 69 | 355 | 0.0 | 0.0 | 0.00 | 0.00 | 0.00 | 94 | 1017.5 |
| 20260506025119 | 70 | 355 | 0.0 | 0.0 | 0.00 | 0.00 | 0.00 | 94 | 1017.5 |
| 20260506024617 | 70 | 355 | 0.0 | 0.0 | 0.00 | 0.00 | 0.00 | 93 | 1017.5 |
| 20260506024113 | 70 | 357 | 0.0 | 0.0 | 0.00 | 0.00 | 0.00 | 93 | 1017.2 |
| 20260506023609 | 70 | 357 | 0.0 | 0.0 | 0.00 | 0.00 | 0.00 | 92 | 1017.1 |
| 20260506023107 | 70 | 357 | 0.0 | 0.0 | 0.00 | 0.00 | 0.00 | 92 | 1017.3 |
| 20260506022604 | 70 | 7 | 0.0 | 0.0 | 0.00 | 0.00 | 0.00 | 92 | 1017.0 |
| 20260506022101 | 70 | 7 | 0.0 | 0.0 | 0.00 | 0.00 | 0.00 | 92 | 1017.1 |
| 20260506021559 | 70 | 7 | 0.0 | 0.0 | 0.00 | 0.00 | 0.00 | 91 | 1017.2 |
| 20260506021056 | 70 | 7 | 0.0 | 0.0 | 0.00 | 0.00 | 0.00 | 91 | 1017.1 |
| 20260506020553 | 71 | 357 | 0.0 | 0.0 | 0.00 | 0.00 | 0.00 | 91 | 1017.1 |
| 20260506020050 | 71 | 357 | 0.0 | 0.0 | 0.00 | 0.00 | 0.00 | 91 | 1017.3 |
| 20260506015548 | 71 | 357 | 0.0 | 0.0 | 0.00 | 0.00 | 0.00 | 91 | 1017.0 |
| 20260506015044 | 71 | 357 | 0.0 | 0.0 | 0.00 | 0.00 | 0.00 | 90 | 1017.2 |
| 20260506014542 | 71 | 7 | 0.0 | 0.0 | 0.00 | 0.00 | 0.00 | 89 | 1016.9 |
| 20260506014038 | 71 | 7 | 0.0 | 0.0 | 0.00 | 0.00 | 0.00 | 88 | 1017.1 |
| 20260506013536 | 71 | 7 | 0.0 | 0.0 | 0.00 | 0.00 | 0.00 | 87 | 1016.9 |
| 20260506013032 | 72 | 7 | 0.0 | 0.0 | 0.00 | 0.00 | 0.00 | 87 | 1016.9 |
| 20260506012529 | 72 | 7 | 0.0 | 0.0 | 0.00 | 0.00 | 0.00 | 86 | 1016.7 |
| 20260506012026 | 73 | 6 | 0.0 | 0.0 | 0.00 | 0.00 | 0.00 | 86 | 1016.7 |
| 20260506011523 | 73 | 357 | 0.0 | 0.0 | 0.00 | 0.00 | 0.00 | 85 | 1016.7 |
| 20260506011019 | 73 | 357 | 0.0 | 0.0 | 0.00 | 0.00 | 0.00 | 85 | 1016.4 |
| 20260506010519 | 74 | 353 | 0.0 | 0.0 | 0.00 | 0.00 | 0.00 | 83 | 1016.6 |
| 20260506010015 | 75 | 353 | 0.0 | 0.0 | 0.00 | 0.00 | 0.00 | 81 | 1016.7 |
| 20260506005513 | 75 | 357 | 0.0 | 0.0 | 0.00 | 0.00 | 0.00 | 80 | 1016.5 |
| 20260506005008 | 75 | 352 | 0.0 | 0.0 | 0.00 | 0.00 | 0.00 | 80 | 1016.2 |
| 20260506004506 | 75 | 351 | 0.0 | 0.0 | 0.00 | 0.00 | 0.00 | 79 | 1016.2 |
| 20260506004002 | 76 | 350 | 0.0 | 0.0 | 0.00 | 0.00 | 0.00 | 78 | 1016.5 |
| 20260506003458 | 76 | 351 | 0.0 | 0.0 | 0.00 | 0.00 | 0.00 | 78 | 1016.2 |
| 20260506002954 | 76 | 351 | 0.0 | 0.0 | 0.00 | 0.00 | 0.00 | 77 | 1016.1 |
| 20260506002451 | 77 | 333 | 0.0 | 0.0 | 0.00 | 0.00 | 0.00 | 76 | 1016.1 |
| 20260506001946 | 77 | 334 | 0.0 | 0.0 | 0.00 | 0.00 | 0.00 | 75 | 1016.1 |
| 20260506001443 | 77 | 352 | 0.0 | 0.0 | 0.00 | 0.00 | 0.00 | 75 | 1016.3 |
| 20260506000941 | 77 | 6 | 1.0 | 2.0 | 0.00 | 0.00 | 0.00 | 74 | 1016.1 |
| 20260506000438 | 77 | 125 | 1.0 | 2.0 | 0.00 | 0.00 | 0.00 | 73 | 1016.1 |
| 20260505235935 | 78 | 175 | 0.0 | 0.0 | 0.00 | 0.00 | 0.00 | 72 | 1015.9 |
| 20260505235433 | 78 | 347 | 0.0 | 0.0 | 0.00 | 0.00 | 0.00 | 72 | 1016.1 |
| 20260505234929 | 78 | 67 | 0.0 | 0.0 | 0.00 | 0.00 | 0.00 | 71 | 1016.0 |
| 20260505234427 | 78 | 98 | 2.0 | 3.0 | 0.00 | 0.00 | 0.00 | 71 | 1015.8 |
| 20260505233924 | 79 | 126 | 2.0 | 2.0 | 0.00 | 0.00 | 0.00 | 71 | 1016.0 |
| 20260505233421 | 79 | 308 | 1.0 | 1.0 | 0.00 | 0.00 | 0.00 | 70 | 1015.9 |
| 20260505232919 | 79 | 50 | 1.0 | 1.0 | 0.00 | 0.00 | 0.00 | 70 | 1016.1 |
| 20260505232416 | 80 | 84 | 3.0 | 3.0 | 0.00 | 0.00 | 0.00 | 69 | 1016.1 |
| 20260505231913 | 80 | 230 | 2.0 | 3.0 | 0.00 | 0.00 | 0.00 | 69 | 1016.2 |
| 20260505231411 | 80 | 119 | 2.0 | 3.0 | 0.00 | 0.00 | 0.00 | 69 | 1016.1 |
| 20260505230908 | 80 | 139 | 3.0 | 5.0 | 0.00 | 0.00 | 0.00 | 69 | 1016.1 |
| 20260505230406 | 80 | 346 | 2.0 | 2.0 | 0.00 | 0.00 | 0.00 | 68 | 1016.2 |
| 20260505225902 | 81 | 88 | 4.0 | 7.0 | 0.00 | 0.00 | 0.00 | 67 | 1016.2 |
| 20260505225359 | 81 | 32 | 3.0 | 5.0 | 0.00 | 0.00 | 0.00 | 67 | 1016.5 |
| 20260505224854 | 81 | 14 | 2.0 | 5.0 | 0.00 | 0.00 | 0.00 | 67 | 1016.4 |